Weather History for Souda, Greece

Change the Weather History Date:

Wednesday, February 12, 2014

  Actual Average Record
Temperature  
Mean Temperature 60 °F -  
Max Temperature 70 °F 60 °F 70 °F (2014)
Min Temperature 49 °F 46 °F 41 °F (2005)
Degree Days  
Heating Degree Days 6    
Growing Degree Days 10 (Base 50)    
Moisture  
Dew Point 47 °F    
Average Humidity 66    
Maximum Humidity 94    
Minimum Humidity 26    
Precipitation  
Precipitation 0.00 in 0.13 in - ()
Sea Level Pressure  
Sea Level Pressure 29.94 in    
Wind  
Wind Speed 5 mph ()    
Max Wind Speed 15 mph    
Max Gust Speed -    
Visibility 6.2 miles    
Events      
Averages and records for this station are not official NWS values.
T = Trace of Precipitation, MM = Missing Value Source: Averaged Metar Reports

Daily Weather History Graph

Daily Weather History Graph

Search for Another Location

Airport:

Trip Planner

Search our weather history database for the weather conditions in past years. The results will help you decide how hot, cold, wet, or windy it might be!

Date:

Astronomy

Feb. 12, 2014 Rise Set
Actual Time 7:13 AM EET 6:02 PM EET
Civil Twilight 6:47 AM EET 6:28 PM EET
Nautical Twilight 6:17 AM EET 6:58 PM EET
Astronomical Twilight 5:47 AM EET 7:28 PM EET
Moon 4:00 PM EET (2/12) 5:15 AM EET (2/12)
Length of Visible Light 11h 41m
Length of Day
10h 48m
Waxing Gibbous, 94% of the Moon is Illuminated
Feb 12
Waxing Gibbous
Feb 15
Full
Feb 22
Last Quarter
Mar 1
New
Mar 8
First Quarter

Hourly Weather History & Observations

Time (EET) Temp. Dew Point Humidity Pressure Visibility Wind Dir Wind Speed Gust Speed Precip Events Conditions
12:20 AM 53.6 °F 51.8 °F 94% 30.01 in 6.2 mi Calm Calm - N/A   Partly Cloudy
12:50 AM 55.4 °F 50.0 °F 82% 29.98 in 6.2 mi Calm Calm - N/A   Partly Cloudy
1:20 AM 55.4 °F 50.0 °F 82% 29.98 in 6.2 mi Calm Calm - N/A   Partly Cloudy
1:50 AM 51.8 °F 46.4 °F 82% 29.98 in 6.2 mi Calm Calm - N/A   Partly Cloudy
2:00 AM 51 °F 47 °F 80% 29.99 in 6 mi Calm Calm - -   Scattered Clouds
2:20 AM 51.8 °F 46.4 °F 82% 29.98 in 6.2 mi Calm Calm - N/A   Partly Cloudy
2:50 AM 51.8 °F 46.4 °F 82% 29.95 in 6.2 mi Calm Calm - N/A   Partly Cloudy
3:20 AM 51.8 °F 46.4 °F 82% 29.95 in 6.2 mi Calm Calm - N/A   Partly Cloudy
3:50 AM 53.6 °F 44.6 °F 72% 29.95 in 6.2 mi Calm Calm - N/A   Partly Cloudy
4:20 AM 53.6 °F 44.6 °F 72% 29.95 in 6.2 mi Calm Calm - N/A   Partly Cloudy
4:50 AM 51.8 °F 46.4 °F 82% 29.95 in 6.2 mi WSW 4.6 mph - N/A   Partly Cloudy
5:00 AM 51 °F 47 °F 80% 29.98 in 6 mi WSW 4.6 mph - -   Scattered Clouds
5:20 AM 51.8 °F 46.4 °F 82% 29.95 in 6.2 mi WSW 4.6 mph - N/A   Partly Cloudy
5:50 AM 50.0 °F 46.4 °F 87% 29.95 in 6.2 mi ENE 4.6 mph - N/A   Partly Cloudy
6:20 AM 50.0 °F 46.4 °F 87% 29.95 in 6.2 mi ENE 4.6 mph - N/A   Partly Cloudy
6:50 AM 53.6 °F 44.6 °F 72% 29.95 in 6.2 mi SE 6.9 mph - N/A   Partly Cloudy
7:20 AM 55.4 °F 42.8 °F 63% 29.95 in 6.2 mi SE 8.1 mph - N/A   Partly Cloudy
7:50 AM 51.8 °F 42.8 °F 71% 29.95 in 6.2 mi SE 8.1 mph - N/A   Partly Cloudy
8:00 AM 52 °F 44 °F 64% 29.97 in 6 mi SE 8.1 mph - -   Scattered Clouds
8:20 AM 51.8 °F 42.8 °F 71% 29.95 in 6.2 mi Calm Calm - N/A   Partly Cloudy
8:50 AM 57.2 °F 42.8 °F 59% 29.95 in 6.2 mi SE 11.5 mph - N/A   Partly Cloudy
9:20 AM 57.2 °F 42.8 °F 59% 29.95 in 6.2 mi SE 10.4 mph - N/A   Partly Cloudy
9:50 AM 64.4 °F 46.4 °F 52% 29.95 in 6.2 mi SSE 9.2 mph - N/A   Partly Cloudy
10:20 AM 64.4 °F 46.4 °F 52% 29.95 in 6.2 mi SSE 12.7 mph - N/A   Partly Cloudy
10:50 AM 68.0 °F 46.4 °F 46% 29.95 in 6.2 mi SSE 12.7 mph - N/A   Partly Cloudy
11:00 AM 67 °F 46 °F 35% 29.96 in 6 mi SSE 12.7 mph - -   Scattered Clouds
11:20 AM 68.0 °F 46.4 °F 46% 29.95 in 6.2 mi SSE 15.0 mph - N/A   Scattered Clouds
11:50 AM 68.0 °F 44.6 °F 43% 29.95 in 6.2 mi SSE 10.4 mph - N/A   Scattered Clouds
12:20 PM 68.0 °F 44.6 °F 43% 29.95 in 6.2 mi ESE 8.1 mph - N/A   Scattered Clouds
12:50 PM 69.8 °F 41.0 °F 35% 29.92 in 6.2 mi South 13.8 mph - N/A   Partly Cloudy
1:20 PM 69.8 °F 41.0 °F 35% 29.92 in 6.2 mi SE 12.7 mph - N/A   Partly Cloudy
1:50 PM 69.8 °F 42.8 °F 38% 29.92 in 6.2 mi ESE 8.1 mph - N/A   Partly Cloudy
2:00 PM 69 °F 42 °F 26% 29.91 in 6 mi ESE 8.1 mph - -   Scattered Clouds
2:20 PM 69.8 °F 42.8 °F 38% 29.92 in 6.2 mi SE 9.2 mph - N/A   Partly Cloudy
2:50 PM 69.8 °F 42.8 °F 38% 29.89 in 6.2 mi SE 6.9 mph - N/A   Partly Cloudy
3:20 PM 69.8 °F 42.8 °F 38% 29.89 in 6.2 mi SE 9.2 mph - N/A   Partly Cloudy
3:50 PM 69.8 °F 42.8 °F 38% 29.89 in 6.2 mi SSE 6.9 mph - N/A   Scattered Clouds
4:20 PM 68.0 °F 42.8 °F 40% 29.89 in 6.2 mi SSE 6.9 mph - N/A   Scattered Clouds
4:50 PM 66.2 °F 44.6 °F 46% 29.89 in 6.2 mi NNW 9.2 mph - N/A   Mostly Cloudy
5:00 PM 66 °F 44 °F 33% 29.90 in 6 mi NNW 9.2 mph - -   Scattered Clouds
5:20 PM 64.4 °F 46.4 °F 52% 29.89 in 6.2 mi ENE 9.2 mph - N/A   Mostly Cloudy
5:50 PM 64.4 °F 46.4 °F 52% 29.89 in 6.2 mi East 6.9 mph - N/A   Scattered Clouds
6:20 PM 60.8 °F 50.0 °F 68% 29.89 in 6.2 mi NE 4.6 mph - N/A   Scattered Clouds
6:50 PM 59.0 °F 48.2 °F 67% 29.92 in 6.2 mi Calm Calm - N/A   Scattered Clouds
7:20 PM 57.2 °F 48.2 °F 72% 29.92 in 6.2 mi NW 6.9 mph - N/A   Partly Cloudy
7:50 PM 57.2 °F 53.6 °F 88% 29.92 in 6.2 mi NNW 11.5 mph - N/A   Partly Cloudy
8:00 PM 58 °F 54 °F 82% 29.93 in 6 mi NNW 11.5 mph - -   Scattered Clouds
8:20 PM 57.2 °F 53.6 °F 88% 29.92 in 6.2 mi WNW 11.5 mph - N/A   Partly Cloudy
8:50 PM 57.2 °F 53.6 °F 88% 29.95 in 6.2 mi NW 9.2 mph - N/A   Partly Cloudy
9:20 PM 57.2 °F 53.6 °F 88% 29.95 in 6.2 mi NW 9.2 mph - N/A   Partly Cloudy
9:50 PM 55.4 °F 51.8 °F 88% 29.95 in 6.2 mi NW 6.9 mph - N/A   Partly Cloudy
10:20 PM 55.4 °F 51.8 °F 88% 29.95 in 6.2 mi NNW 9.2 mph - N/A   Partly Cloudy
10:50 PM 53.6 °F 50.0 °F 88% 29.95 in 6.2 mi NW 4.6 mph - N/A   Partly Cloudy
11:00 PM 53 °F 50 °F 84% 29.96 in 6 mi NW 4.6 mph - -   Scattered Clouds
11:20 PM 53.6 °F 50.0 °F 88% 29.95 in 6.2 mi NW 4.6 mph - N/A   Partly Cloudy
11:50 PM 53.6 °F 50.0 °F 88% 29.95 in 6.2 mi WNW 5.8 mph - N/A   Partly Cloudy